"SCLK","SCET","ORBIT_NUMBER","ALTITUDE","LATITUDE_PLANEOGRAPHIC","LATITUDE_PLANETOCENTRIC","LOCAL_TRUE_SOLAR_TIME","WEST_LONGITUDE","X_SUN_DIR_DISTANCE","RHO_PRP_SUN_DISTANCE","SOLAR_ZENITH_ANGLE","ELECTRON_PLASMA_FREQUENCY","FPE_QUALITY","FPP_VERIFICATION","ELECTRON_PLASMA_DENSITY","ELECTRON_CYCLOTRON_PERIOD","FCP_QUALITY","B_MAGNITUDE"
"1/0367106990.09327",2014-12-19T22:09:54.166,13919,1477.00,31.46,31.22,"07:45:25",266.81,-1.380,0.400,163.71,,,,,3.98e+00,1,8.96e+00
"1/0367106997.44979",2014-12-19T22:10:01.710,13919,1466.00,31.76,31.51,"07:43:14",266.82,-1.370,0.400,163.58,,,,,3.83e+00,1,9.31e+00
"1/0367107005.15029",2014-12-19T22:10:09.253,13919,1455.00,32.05,31.81,"07:41:04",266.83,-1.370,0.400,163.45,,,,,3.80e+00,1,9.39e+00
"1/0367107012.50615",2014-12-19T22:10:16.796,13919,1445.00,32.35,32.10,"07:41:12",266.83,-1.360,0.410,163.31,,,,,3.82e+00,1,9.35e+00
"1/0367107020.20665",2014-12-19T22:10:24.339,13919,1434.00,32.64,32.39,"07:39:01",266.84,-1.360,0.410,163.17,,,,,3.82e+00,1,9.35e+00
"1/0367107027.56317",2014-12-19T22:10:31.883,13919,1424.00,32.94,32.69,"07:36:51",266.85,-1.360,0.410,163.03,,,,,3.80e+00,1,9.39e+00
"1/0367107042.61953",2014-12-19T22:10:46.969,13919,1403.00,33.54,33.29,"07:32:31",266.87,-1.350,0.420,162.72,,,,,3.72e+00,1,9.60e+00
"1/0367107050.32003",2014-12-19T22:10:54.512,13919,1392.00,33.84,33.59,"07:32:38",266.87,-1.340,0.420,162.57,,,,,3.75e+00,1,9.52e+00
"1/0367107058.02053",2014-12-19T22:11:02.055,13919,1382.00,34.14,33.89,"07:30:28",266.88,-1.340,0.420,162.40,,,,,3.75e+00,1,9.52e+00
"1/0367107065.37704",2014-12-19T22:11:09.599,13919,1371.00,34.45,34.19,"07:28:18",266.89,-1.340,0.420,162.23,,,,,3.72e+00,1,9.60e+00
"1/0367107073.07754",2014-12-19T22:11:17.142,13919,1361.00,34.75,34.49,"07:28:25",266.89,-1.330,0.430,162.06,,,,,3.64e+00,1,9.82e+00
"1/0367107080.43340",2014-12-19T22:11:24.685,13919,1350.00,35.06,34.80,"07:26:15",266.90,-1.330,0.430,161.89,,,,,3.62e+00,1,9.87e+00
"1/0367107088.13390",2014-12-19T22:11:32.228,13919,1340.00,35.37,35.10,"07:24:05",266.91,-1.320,0.430,161.71,,,,,3.64e+00,1,9.82e+00
"1/0367107095.48976",2014-12-19T22:11:39.771,13919,1330.00,35.68,35.41,"07:24:12",266.91,-1.320,0.440,161.52,,,,,3.52e+00,1,1.01e+01
"1/0367107103.19092",2014-12-19T22:11:47.315,13919,1319.00,35.99,35.72,"07:22:02",266.92,-1.310,0.440,161.33,,,,,3.55e+00,1,1.01e+01
"1/0367107110.54678",2014-12-19T22:11:54.858,13919,1309.00,36.30,36.03,"07:22:09",266.92,-1.310,0.440,161.14,,,,,3.55e+00,1,1.01e+01
"1/0367107118.24728",2014-12-19T22:12:02.401,13919,1299.00,36.61,36.34,"07:19:59",266.93,-1.310,0.450,160.95,,,,,3.57e+00,1,1.00e+01
"1/0367107125.60314",2014-12-19T22:12:09.944,13919,1289.00,36.93,36.66,"07:20:07",266.93,-1.300,0.450,160.75,,,,,3.57e+00,1,1.00e+01
"1/0367107141.00480",2014-12-19T22:12:25.031,13919,1268.00,37.56,37.29,"07:18:04",266.94,-1.290,0.460,160.34,,,,,3.54e+00,1,1.01e+01
"1/0367107148.36066",2014-12-19T22:12:32.574,13919,1258.00,37.88,37.61,"07:18:11",266.94,-1.290,0.460,160.12,,,,,3.57e+00,1,1.00e+01
"1/0367107156.06116",2014-12-19T22:12:40.117,13919,1248.00,38.20,37.92,"07:16:01",266.95,-1.280,0.460,159.91,,,,,3.54e+00,1,1.01e+01
"1/0367107163.41702",2014-12-19T22:12:47.660,13919,1238.00,38.52,38.24,"07:16:08",266.95,-1.280,0.470,159.69,3.10e+01,1,,1.19e+01,3.52e+00,1,1.01e+01
"1/0367107171.11752",2014-12-19T22:12:55.203,13919,1228.00,38.84,38.57,"07:16:16",266.95,-1.270,0.470,159.47,4.10e+01,1,,2.08e+01,3.52e+00,1,1.01e+01
"1/0367107178.47403",2014-12-19T22:13:02.747,13919,1218.00,39.17,38.89,"07:16:23",266.95,-1.270,0.480,159.24,4.00e+01,1,,1.98e+01,3.54e+00,1,1.01e+01
"1/0367107186.17453",2014-12-19T22:13:10.290,13919,1208.00,39.49,39.21,"07:16:30",266.95,-1.260,0.480,159.01,3.70e+01,1,,1.70e+01,3.55e+00,1,1.01e+01
"1/0367107193.53039",2014-12-19T22:13:17.833,13919,1198.00,39.82,39.54,"07:16:38",266.95,-1.260,0.480,158.78,4.00e+01,1,,1.98e+01,3.59e+00,1,9.96e+00
"1/0367107201.23089",2014-12-19T22:13:25.376,13919,1188.00,40.15,39.87,"07:14:27",266.96,-1.260,0.490,158.55,4.10e+01,1,,2.08e+01,3.49e+00,1,1.02e+01
"1/0367107208.58675",2014-12-19T22:13:32.919,13919,1179.00,40.48,40.20,"07:14:35",266.96,-1.250,0.490,158.31,4.00e+01,1,,1.98e+01,3.45e+00,1,1.03e+01
"1/0367107216.28791",2014-12-19T22:13:40.463,13919,1169.00,40.81,40.53,"07:14:42",266.96,-1.250,0.500,158.06,4.50e+01,2,,2.51e+01,3.59e+00,2,9.96e+00
"1/0367107223.64377",2014-12-19T22:13:48.006,13919,1159.00,41.14,40.86,"07:14:49",266.96,-1.240,0.500,157.82,4.30e+01,2,,2.29e+01,3.57e+00,1,1.00e+01
"1/0367107231.34427",2014-12-19T22:13:55.549,13919,1149.00,41.48,41.19,"07:17:14",266.95,-1.240,0.510,157.57,4.50e+01,2,,2.51e+01,3.55e+00,2,1.01e+01
"1/0367107239.04477",2014-12-19T22:14:03.092,13919,1139.00,41.81,41.52,"07:17:22",266.95,-1.230,0.510,157.32,4.40e+01,2,,2.40e+01,3.52e+00,1,1.01e+01
"1/0367107246.40063",2014-12-19T22:14:10.635,13919,1130.00,42.15,41.86,"07:17:29",266.95,-1.230,0.510,157.06,4.50e+01,2,,2.51e+01,3.50e+00,1,1.02e+01
"1/0367107254.10178",2014-12-19T22:14:18.179,13919,1120.00,42.49,42.20,"07:17:36",266.95,-1.220,0.520,156.80,4.50e+01,2,,2.51e+01,3.45e+00,1,1.03e+01
"1/0367107261.45765",2014-12-19T22:14:25.722,13919,1111.00,42.83,42.54,"07:17:44",266.95,-1.220,0.520,156.54,4.80e+01,1,,2.86e+01,3.47e+00,1,1.03e+01
"1/0367107269.15815",2014-12-19T22:14:33.265,13919,1101.00,43.17,42.88,"07:20:08",266.94,-1.210,0.530,156.28,4.80e+01,2,,2.86e+01,,,
"1/0367107276.51401",2014-12-19T22:14:40.808,13919,1092.00,43.51,43.22,"07:20:16",266.94,-1.210,0.530,156.01,4.90e+01,2,,2.98e+01,3.40e+00,1,1.05e+01
"1/0367107284.21451",2014-12-19T22:14:48.351,13919,1082.00,43.86,43.56,"07:22:41",266.93,-1.200,0.540,155.74,4.80e+01,1,,2.86e+01,,,
"1/0367107291.57102",2014-12-19T22:14:55.895,13919,1073.00,44.20,43.91,"07:22:48",266.93,-1.200,0.540,155.47,5.30e+01,2,,3.48e+01,3.42e+00,1,1.04e+01
"1/0367107299.27152",2014-12-19T22:15:03.438,13919,1063.00,44.55,44.25,"07:25:13",266.92,-1.190,0.540,155.19,5.80e+01,2,,4.17e+01,,,
"1/0367107306.62738",2014-12-19T22:15:10.981,13919,1054.00,44.90,44.60,"07:25:20",266.92,-1.190,0.550,154.91,6.10e+01,2,,4.61e+01,3.27e+00,1,1.09e+01
"1/0367107314.32788",2014-12-19T22:15:18.524,13919,1045.00,45.25,44.95,"07:27:45",266.91,-1.180,0.550,154.63,6.50e+01,2,,5.24e+01,3.20e+00,2,1.11e+01
"1/0367107322.02838",2014-12-19T22:15:26.067,13919,1035.00,45.60,45.30,"07:30:10",266.90,-1.180,0.560,154.34,6.50e+01,2,,5.24e+01,3.12e+00,2,1.14e+01
"1/0367107329.38490",2014-12-19T22:15:33.611,13919,1026.00,45.95,45.65,"07:32:35",266.89,-1.170,0.560,154.06,6.00e+01,2,,4.46e+01,2.92e+00,2,1.22e+01
"1/0367107337.08540",2014-12-19T22:15:41.154,13919,1017.00,46.30,46.00,"07:32:42",266.89,-1.160,0.570,153.77,6.80e+01,2,,5.73e+01,3.04e+00,1,1.18e+01
"1/0367107344.44126",2014-12-19T22:15:48.697,13919,1008.00,46.66,46.36,"07:35:07",266.88,-1.160,0.570,153.47,7.10e+01,2,,6.25e+01,3.06e+00,1,1.17e+01
"1/0367107352.14176",2014-12-19T22:15:56.240,13919,999.00,47.02,46.72,"07:37:32",266.87,-1.150,0.580,153.18,6.50e+01,2,,5.24e+01,3.04e+00,1,1.18e+01
"1/0367107359.49762",2014-12-19T22:16:03.783,13919,990.00,47.37,47.07,"07:42:14",266.85,-1.150,0.580,152.88,7.10e+01,2,,6.25e+01,,,
"1/0367107367.19877",2014-12-19T22:16:11.327,13919,981.00,47.73,47.43,"07:44:39",266.84,-1.140,0.590,152.58,7.30e+01,2,,6.61e+01,3.19e+00,1,1.12e+01
"1/0367107374.55463",2014-12-19T22:16:18.870,13919,972.00,48.09,47.79,"07:47:04",266.83,-1.140,0.590,152.28,7.60e+01,2,,7.16e+01,,,
"1/0367107382.25514",2014-12-19T22:16:26.413,13919,963.00,48.46,48.16,"07:49:29",266.82,-1.130,0.600,151.97,7.40e+01,2,,6.79e+01,3.45e+00,1,1.03e+01
"1/0367107389.61100",2014-12-19T22:16:33.956,13919,954.00,48.82,48.52,"07:54:11",266.80,-1.130,0.600,151.66,6.90e+01,2,,5.90e+01,3.40e+00,1,1.05e+01
"1/0367107397.31150",2014-12-19T22:16:41.499,13919,945.00,49.19,48.89,"07:56:36",266.79,-1.120,0.610,151.35,8.40e+01,2,,8.75e+01,,,
"1/0367107405.01265",2014-12-19T22:16:49.043,13919,936.00,49.55,49.25,"08:01:18",266.77,-1.120,0.610,151.04,9.10e+01,2,,1.03e+02,,,
"1/0367107412.36851",2014-12-19T22:16:56.586,13919,928.00,49.92,49.62,"08:03:43",266.76,-1.110,0.620,150.73,9.90e+01,2,,1.22e+02,,,
"1/0367107420.06901",2014-12-19T22:17:04.129,13919,919.00,50.29,49.99,"08:08:25",266.74,-1.100,0.620,150.41,1.01e+02,2,,1.26e+02,,,
"1/0367107427.42487",2014-12-19T22:17:11.672,13919,910.00,50.66,50.36,"08:13:08",266.72,-1.100,0.630,150.09,1.01e+02,2,,1.26e+02,4.40e+00,1,8.12e+00
"1/0367107435.12537",2014-12-19T22:17:19.215,13919,902.00,51.03,50.73,"08:17:50",266.70,-1.090,0.630,149.77,1.10e+02,2,,1.50e+02,,,
"1/0367107442.48189",2014-12-19T22:17:26.759,13919,893.00,51.41,51.11,"08:22:33",266.68,-1.090,0.640,149.44,9.80e+01,2,,1.19e+02,,,
"1/0367107450.18239",2014-12-19T22:17:34.302,13919,885.00,51.78,51.48,"08:27:15",266.66,-1.080,0.640,149.11,1.05e+02,2,,1.37e+02,,,
"1/0367107457.53825",2014-12-19T22:17:41.845,13919,876.00,52.16,51.86,"08:31:57",266.64,-1.080,0.650,148.79,1.12e+02,2,,1.56e+02,,,
"1/0367107465.23875",2014-12-19T22:17:49.388,13919,868.00,52.54,52.24,"08:38:57",266.61,-1.070,0.650,148.45,1.05e+02,2,,1.37e+02,,,
"1/0367107472.59461",2014-12-19T22:17:56.931,13919,860.00,52.92,52.62,"08:43:39",266.59,-1.060,0.650,148.12,1.02e+02,2,,1.29e+02,,,
"1/0367107480.29576",2014-12-19T22:18:04.475,13919,852.00,53.30,53.00,"08:50:39",266.56,-1.060,0.660,147.78,1.01e+02,2,,1.26e+02,,,
"1/0367107487.65162",2014-12-19T22:18:12.018,13919,843.00,53.68,53.38,"08:55:22",266.54,-1.050,0.660,147.45,1.02e+02,2,,1.29e+02,,,
"1/0367107495.35212",2014-12-19T22:18:19.561,13919,835.00,54.07,53.77,"09:02:22",266.51,-1.050,0.670,147.11,9.70e+01,2,,1.17e+02,,,
"1/0367107503.05263",2014-12-19T22:18:27.104,13919,827.00,54.45,54.16,"09:09:21",266.48,-1.040,0.670,146.76,9.60e+01,2,,1.14e+02,,,
"1/0367107510.40849",2014-12-19T22:18:34.647,13919,819.00,54.84,54.54,"09:16:21",266.45,-1.030,0.680,146.42,9.20e+01,2,,1.05e+02,,,
"1/0367107518.10964",2014-12-19T22:18:42.191,13919,811.00,55.23,54.93,"09:25:39",266.41,-1.030,0.680,146.07,9.10e+01,2,,1.03e+02,,,
"1/0367107525.46550",2014-12-19T22:18:49.734,13919,803.00,55.62,55.32,"09:32:39",266.38,-1.020,0.690,145.72,8.90e+01,2,,9.82e+01,,,
"1/0367107533.16600",2014-12-19T22:18:57.277,13919,795.00,56.01,55.71,"09:41:56",266.34,-1.010,0.690,145.37,9.10e+01,2,,1.03e+02,,,
"1/0367107540.52186",2014-12-19T22:19:04.820,13919,788.00,56.40,56.11,"09:48:56",266.31,-1.010,0.700,145.02,9.20e+01,2,,1.05e+02,,,
"1/0367107548.22236",2014-12-19T22:19:12.363,13919,780.00,56.79,56.50,"09:58:13",266.27,-1.000,0.700,144.66,9.20e+01,2,,1.05e+02,,,
"1/0367107555.57888",2014-12-19T22:19:19.907,13919,772.00,57.19,56.90,"10:07:31",266.23,-1.000,0.710,144.31,9.40e+01,2,,1.10e+02,,,
"1/0367107563.27938",2014-12-19T22:19:27.450,13919,765.00,57.58,57.30,"10:19:05",266.18,-0.990,0.710,143.95,9.30e+01,2,,1.07e+02,,,
"1/0367107570.63524",2014-12-19T22:19:34.993,13919,757.00,57.98,57.70,"10:28:23",266.14,-0.980,0.720,143.59,9.40e+01,2,,1.10e+02,,,
"1/0367107578.33574",2014-12-19T22:19:42.536,13919,749.00,58.38,58.10,"10:39:58",266.09,-0.980,0.720,143.22,9.60e+01,2,,1.14e+02,,,
"1/0367107586.03689",2014-12-19T22:19:50.080,13919,742.00,58.78,58.50,"10:51:33",266.04,-0.970,0.730,142.86,9.60e+01,2,,1.14e+02,,,
"1/0367107593.39275",2014-12-19T22:19:57.623,13919,735.00,59.18,58.90,"11:03:07",265.99,-0.960,0.730,142.49,9.60e+01,2,,1.14e+02,,,
"1/0367107601.09325",2014-12-19T22:20:05.166,13919,727.00,59.59,59.31,"11:14:42",265.94,-0.960,0.740,142.12,9.80e+01,2,,1.19e+02,,,
"1/0367107608.44911",2014-12-19T22:20:12.709,13919,720.00,59.99,59.71,"11:26:17",265.89,-0.950,0.740,141.75,1.07e+02,2,,1.42e+02,,,
"1/0367107616.14961",2014-12-19T22:20:20.252,13919,713.00,60.40,60.12,"11:40:10",265.83,-0.940,0.750,141.38,1.09e+02,2,,1.47e+02,,,
"1/0367107623.50613",2014-12-19T22:20:27.796,13919,706.00,60.81,60.53,"11:54:02",265.77,-0.940,0.750,141.00,1.18e+02,2,,1.73e+02,,,
"1/0367107631.20663",2014-12-19T22:20:35.339,13919,699.00,61.21,60.94,"12:07:54",265.71,-0.930,0.760,140.63,1.25e+02,2,,1.94e+02,,,
"1/0367107638.56249",2014-12-19T22:20:42.882,13919,692.00,61.62,61.35,"12:24:04",265.64,-0.920,0.760,140.25,1.34e+02,2,,2.23e+02,,,
"1/0367107646.26299",2014-12-19T22:20:50.425,13919,685.00,62.03,61.77,"12:40:14",265.57,-0.920,0.770,139.87,1.33e+02,2,,2.19e+02,,,
"1/0367107653.61885",2014-12-19T22:20:57.968,13919,678.00,62.45,62.18,"12:56:24",265.50,-0.910,0.770,139.49,1.33e+02,2,,2.19e+02,,,
"1/0367107661.32001",2014-12-19T22:21:05.512,13919,671.00,62.86,62.60,"13:12:34",265.43,-0.900,0.780,139.10,1.28e+02,2,,2.03e+02,,,
"1/0367107669.02051",2014-12-19T22:21:13.055,13919,664.00,63.28,63.01,"13:31:01",265.35,-0.900,0.780,138.72,1.30e+02,2,,2.10e+02,,,
"1/0367107676.37637",2014-12-19T22:21:20.598,13919,658.00,63.69,63.43,"13:49:29",265.27,-0.890,0.790,138.33,1.33e+02,2,,2.19e+02,,,
"1/0367107684.07687",2014-12-19T22:21:28.141,13919,651.00,64.11,63.85,"14:10:14",265.18,-0.880,0.790,137.94,1.33e+02,2,,2.19e+02,,,
"1/0367107691.43273",2014-12-19T22:21:35.684,13919,645.00,64.53,64.27,"14:30:59",265.09,-0.880,0.800,137.55,1.43e+02,2,,2.54e+02,,,
"1/0367107699.13388",2014-12-19T22:21:43.228,13919,638.00,64.95,64.70,"14:51:44",265.00,-0.870,0.800,137.16,1.42e+02,2,,2.50e+02,,,
"1/0367107706.48974",2014-12-19T22:21:50.771,13919,632.00,65.37,65.12,"15:14:46",264.90,-0.860,0.810,136.76,1.42e+02,2,,2.50e+02,,,
"1/0367107714.19024",2014-12-19T22:21:58.314,13919,626.00,65.79,65.54,"15:37:49",264.80,-0.860,0.810,136.37,1.40e+02,2,,2.43e+02,,,
"1/0367107721.54610",2014-12-19T22:22:05.857,13919,619.00,66.21,65.97,"16:03:08",264.69,-0.850,0.810,135.97,1.37e+02,2,,2.33e+02,,,
"1/0367107729.24660",2014-12-19T22:22:13.400,13919,613.00,66.64,66.40,"16:28:28",264.58,-0.840,0.820,135.57,1.39e+02,2,,2.40e+02,,,
"1/0367107736.60312",2014-12-19T22:22:20.944,13919,607.00,67.06,66.83,"16:56:06",264.46,-0.830,0.820,135.17,1.49e+02,2,,2.75e+02,,,
"1/0367107744.30362",2014-12-19T22:22:28.487,13919,601.00,67.49,67.26,"17:23:43",264.34,-0.830,0.830,134.77,1.56e+02,2,,3.02e+02,,,
"1/0367107752.00412",2014-12-19T22:22:36.030,13919,595.00,67.92,67.69,"17:53:38",264.21,-0.820,0.830,134.37,1.62e+02,2,,3.25e+02,,,
"1/0367107759.35998",2014-12-19T22:22:43.573,13919,589.00,68.35,68.12,"18:25:51",264.07,-0.810,0.840,133.96,1.65e+02,2,,3.38e+02,,,
"1/0367107767.06048",2014-12-19T22:22:51.116,13919,583.00,68.78,68.55,"18:58:03",263.93,-0.810,0.840,133.55,1.63e+02,2,,3.29e+02,,,
"1/0367107774.41700",2014-12-19T22:22:58.660,13919,578.00,69.21,68.99,"19:32:33",263.78,-0.800,0.850,133.15,1.65e+02,2,,3.38e+02,,,
"1/0367107782.11750",2014-12-19T22:23:06.203,13919,572.00,69.64,69.42,"20:09:21",263.62,-0.790,0.850,132.74,1.67e+02,2,,3.46e+02,,,
"1/0367107789.47336",2014-12-19T22:23:13.746,13919,567.00,70.07,69.86,"20:48:26",263.45,-0.780,0.860,132.32,1.68e+02,2,,3.50e+02,,,
"1/0367107797.17386",2014-12-19T22:23:21.289,13919,561.00,70.51,70.30,"21:27:31",263.28,-0.780,0.860,131.91,1.69e+02,2,,3.54e+02,,,
"1/0367107804.52972",2014-12-19T22:23:28.832,13919,556.00,70.94,70.74,"22:11:11",263.09,-0.770,0.860,131.50,1.69e+02,2,,3.54e+02,,,
"1/0367107812.23087",2014-12-19T22:23:36.376,13919,550.00,71.38,71.18,"22:54:51",262.90,-0.760,0.870,131.08,1.66e+02,2,,3.42e+02,,,
"1/0367107819.58673",2014-12-19T22:23:43.919,13919,545.00,71.81,71.62,"23:43:06",262.69,-0.750,0.870,130.66,1.61e+02,2,,3.21e+02,,,
"1/0367107827.28723",2014-12-19T22:23:51.462,13919,540.00,72.25,72.06,"00:33:38",262.47,-0.750,0.880,130.24,1.65e+02,2,,3.38e+02,,,
"1/0367107834.64309",2014-12-19T22:23:59.005,13919,535.00,72.69,72.50,"01:26:28",262.24,-0.740,0.880,129.82,1.62e+02,2,,3.25e+02,,,
"1/0367107842.34359",2014-12-19T22:24:06.548,13919,530.00,73.13,72.94,"02:21:36",262.00,-0.730,0.890,129.40,1.58e+02,2,,3.10e+02,,,
"1/0367107850.04475",2014-12-19T22:24:14.092,13919,525.00,73.57,73.39,"03:21:19",261.74,-0.720,0.890,128.98,1.55e+02,2,,2.98e+02,,,
"1/0367107857.40061",2014-12-19T22:24:21.635,13919,520.00,74.01,73.83,"04:25:36",261.46,-0.720,0.890,128.56,1.57e+02,2,,3.06e+02,,,
"1/0367107865.10111",2014-12-19T22:24:29.178,13919,515.00,74.45,74.27,"05:32:11",261.17,-0.710,0.900,128.13,1.55e+02,2,,2.98e+02,,,
"1/0367107872.45697",2014-12-19T22:24:36.721,13919,511.00,74.89,74.72,"06:45:39",260.85,-0.700,0.900,127.70,1.55e+02,2,,2.98e+02,,,
"1/0367107880.15747",2014-12-19T22:24:44.264,13919,506.00,75.33,75.17,"08:01:24",260.52,-0.690,0.910,127.28,1.52e+02,2,,2.87e+02,,,
"1/0367107887.51399",2014-12-19T22:24:51.808,13919,501.00,75.77,75.61,"09:24:02",260.16,-0.690,0.910,126.85,1.49e+02,2,,2.75e+02,,,
"1/0367107895.21449",2014-12-19T22:24:59.351,13919,497.00,76.22,76.06,"10:51:15",259.78,-0.680,0.920,126.42,1.51e+02,2,,2.83e+02,,,
"1/0367107902.57035",2014-12-19T22:25:06.894,13919,493.00,76.66,76.51,"12:25:20",259.37,-0.670,0.920,125.99,1.55e+02,2,,2.98e+02,,,
"1/0367107910.27085",2014-12-19T22:25:14.437,13919,488.00,77.10,76.95,"14:06:18",258.93,-0.660,0.920,125.55,1.54e+02,2,,2.94e+02,,,
"1/0367107917.62671",2014-12-19T22:25:21.980,13919,484.00,77.55,77.40,"15:56:25",258.45,-0.660,0.930,125.12,1.57e+02,2,,3.06e+02,,,
"1/0367107925.32786",2014-12-19T22:25:29.524,13919,480.00,77.99,77.85,"17:53:26",257.94,-0.650,0.930,124.68,1.63e+02,2,,3.29e+02,,,
"1/0367107933.02836",2014-12-19T22:25:37.067,13919,476.00,78.43,78.30,"20:01:54",257.38,-0.640,0.940,124.25,1.65e+02,2,,3.38e+02,,,
"1/0367107940.38422",2014-12-19T22:25:44.610,13919,472.00,78.87,78.74,"22:19:32",256.78,-0.630,0.940,123.81,1.60e+02,2,,3.17e+02,,,
"1/0367107948.08472",2014-12-19T22:25:52.153,13919,468.00,79.31,79.19,"00:50:55",256.12,-0.620,0.940,123.37,1.44e+02,2,,2.57e+02,,,
"1/0367107955.44058",2014-12-19T22:25:59.696,13919,465.00,79.76,79.63,"03:33:45",255.41,-0.620,0.950,122.93,1.65e+02,2,,3.38e+02,,,
"1/0367107963.14174",2014-12-19T22:26:07.240,13919,461.00,80.20,80.08,"06:32:38",254.63,-0.610,0.950,122.49,1.72e+02,2,,3.67e+02,,,
"1/0367107970.49760",2014-12-19T22:26:14.783,13919,457.00,80.63,80.52,"09:52:09",253.76,-0.600,0.960,122.05,1.87e+02,2,,4.34e+02,,,
"1/0367107978.19810",2014-12-19T22:26:22.326,13919,454.00,81.07,80.96,"13:27:42",252.82,-0.590,0.960,121.61,1.90e+02,2,,4.48e+02,,,
"1/0367107985.55396",2014-12-19T22:26:29.869,13919,450.00,81.51,81.40,"17:28:28",251.77,-0.580,0.960,121.16,1.92e+02,2,,4.57e+02,,,
"1/0367107993.25446",2014-12-19T22:26:37.412,13919,447.00,81.94,81.84,"21:56:44",250.60,-0.580,0.970,120.72,1.90e+02,2,,4.48e+02,,,
"1/0367108000.61098",2014-12-19T22:26:44.956,13919,444.00,82.37,82.27,"02:57:05",249.29,-0.570,0.970,120.27,1.87e+02,2,,4.34e+02,,,
"1/0367108008.31148",2014-12-19T22:26:52.499,13919,441.00,82.79,82.70,"08:31:49",247.83,-0.560,0.970,119.83,1.81e+02,2,,4.06e+02,,,
"1/0367108016.01198",2014-12-19T22:27:00.042,13919,438.00,83.21,83.13,"14:50:05",246.18,-0.550,0.980,119.38,1.86e+02,2,,4.29e+02,,,
"1/0367108023.36784",2014-12-19T22:27:07.585,13919,435.00,83.63,83.55,"22:01:05",244.30,-0.540,0.980,118.93,1.88e+02,2,,4.38e+02,,,
"1/0367108031.06834",2014-12-19T22:27:15.128,13919,432.00,84.03,83.96,"06:09:22",242.17,-0.540,0.980,118.48,1.83e+02,2,,4.15e+02,,,
"1/0367108038.42485",2014-12-19T22:27:22.672,13919,429.00,84.43,84.36,"15:33:16",239.71,-0.530,0.990,118.03,1.84e+02,2,,4.20e+02,,,
"1/0367108046.12535",2014-12-19T22:27:30.215,13919,426.00,84.82,84.75,"02:21:59",236.88,-0.520,0.990,117.58,1.83e+02,2,,4.15e+02,,,
"1/0367108053.48121",2014-12-19T22:27:37.758,13919,424.00,85.19,85.13,"14:56:07",233.59,-0.510,0.990,117.13,1.79e+02,2,,3.97e+02,,,
"1/0367108061.18171",2014-12-19T22:27:45.301,13919,421.00,85.54,85.49,"05:34:01",229.76,-0.500,1.000,116.68,1.91e+02,2,,4.52e+02,,,
"1/0367108068.53757",2014-12-19T22:27:52.844,13919,419.00,85.87,85.82,"22:40:52",225.28,-0.490,1.000,116.23,2.14e+02,2,,5.68e+02,,,
"1/0367108076.23873",2014-12-19T22:28:00.388,13919,417.00,86.17,86.12,"18:39:37",220.05,-0.490,1.000,115.77,2.28e+02,2,,6.45e+02,,,
"1/0367108083.59459",2014-12-19T22:28:07.931,13919,414.00,86.44,86.39,"17:50:53",213.98,-0.480,1.010,115.32,2.68e+02,2,,8.91e+02,,,
"1/0367108091.29509",2014-12-19T22:28:15.474,13919,412.00,86.66,86.61,"20:28:25",207.01,-0.470,1.010,114.87,2.91e+02,2,,1.05e+03,,,
"1/0367108098.65095",2014-12-19T22:28:23.017,13919,410.00,86.82,86.77,"02:18:28",199.20,-0.460,1.010,114.41,3.16e+02,2,,1.24e+03,,,
"1/0367108106.35145",2014-12-19T22:28:30.560,13919,408.00,86.91,86.87,"10:42:03",190.72,-0.450,1.020,113.95,3.07e+02,2,,1.17e+03,2.82e+00,1,1.27e+01
"1/0367108114.05261",2014-12-19T22:28:38.104,13919,406.00,86.94,86.90,"20:25:52",181.89,-0.440,1.020,113.50,2.60e+02,2,,8.38e+02,2.87e+00,1,1.24e+01
"1/0367108121.40847",2014-12-19T22:28:45.647,13919,405.00,86.89,86.85,"05:58:13",173.11,-0.440,1.020,113.04,2.40e+02,2,,7.14e+02,3.05e+00,2,1.17e+01
"1/0367108129.10897",2014-12-19T22:28:53.190,13919,403.00,86.77,86.73,"13:45:08",164.79,-0.430,1.030,112.58,2.43e+02,2,,7.32e+02,3.28e+00,1,1.09e+01
"1/0367108136.46483",2014-12-19T22:29:00.733,13919,401.00,86.59,86.55,"18:47:03",157.19,-0.420,1.030,112.12,2.26e+02,2,,6.33e+02,3.45e+00,1,1.03e+01
"1/0367108144.16533",2014-12-19T22:29:08.276,13919,400.00,86.36,86.31,"20:29:35",150.46,-0.410,1.030,111.66,2.24e+02,2,,6.22e+02,3.64e+00,1,9.80e+00
"1/0367108151.52184",2014-12-19T22:29:15.820,13919,399.00,86.08,86.03,"18:48:08",144.62,-0.400,1.040,111.21,2.21e+02,2,,6.06e+02,,,
"1/0367108159.22234",2014-12-19T22:29:23.363,13919,397.00,85.76,85.71,"13:58:45",139.60,-0.390,1.040,110.75,2.32e+02,2,,6.67e+02,3.51e+00,1,1.02e+01
"1/0367108166.57820",2014-12-19T22:29:30.906,13919,396.00,85.42,85.36,"06:22:04",135.31,-0.380,1.040,110.29,2.63e+02,2,,8.58e+02,,,
"1/0367108174.27870",2014-12-19T22:29:38.449,13919,395.00,85.05,84.99,"20:25:35",131.63,-0.380,1.040,109.83,2.63e+02,2,,8.58e+02,,,
"1/0367108181.63522",2014-12-19T22:29:45.993,13919,394.00,84.67,84.60,"08:29:56",128.47,-0.370,1.050,109.36,2.32e+02,2,,6.67e+02,,,
"1/0367108189.33572",2014-12-19T22:29:53.536,13919,393.00,84.27,84.20,"18:55:43",125.74,-0.360,1.050,108.90,2.21e+02,2,,6.06e+02,3.12e+00,1,1.14e+01
"1/0367108197.03622",2014-12-19T22:30:01.079,13919,392.00,83.86,83.78,"03:56:43",123.38,-0.350,1.050,108.44,2.16e+02,2,,5.79e+02,,,
"1/0367108204.39208",2014-12-19T22:30:08.622,13919,392.00,83.44,83.36,"11:48:57",121.32,-0.340,1.050,107.98,2.26e+02,2,,6.33e+02,,,
"1/0367108212.09258",2014-12-19T22:30:16.165,13919,391.00,83.01,82.93,"18:43:54",119.51,-0.330,1.060,107.52,2.30e+02,2,,6.56e+02,2.84e+00,1,1.26e+01
"1/0367108219.44910",2014-12-19T22:30:23.709,13919,390.00,82.58,82.49,"00:50:43",117.91,-0.320,1.060,107.06,2.38e+02,2,,7.02e+02,2.67e+00,1,1.34e+01
"1/0367108227.14960",2014-12-19T22:30:31.252,13919,390.00,82.14,82.04,"06:16:16",116.49,-0.310,1.060,106.59,2.42e+02,2,,7.26e+02,2.60e+00,2,1.37e+01
"1/0367108234.50546",2014-12-19T22:30:38.795,13919,390.00,81.70,81.59,"11:07:27",115.22,-0.310,1.070,106.13,2.46e+02,2,,7.50e+02,2.61e+00,2,1.37e+01
"1/0367108242.20596",2014-12-19T22:30:46.338,13919,389.00,81.25,81.14,"15:26:33",114.09,-0.300,1.070,105.67,2.38e+02,2,,7.02e+02,2.56e+00,2,1.39e+01
"1/0367108249.56182",2014-12-19T22:30:53.881,13919,389.00,80.80,80.68,"19:20:27",113.07,-0.290,1.070,105.20,2.48e+02,2,,7.63e+02,2.52e+00,1,1.42e+01
"1/0367108257.26297",2014-12-19T22:31:01.425,13919,389.00,80.34,80.22,"22:53:43",112.14,-0.280,1.070,104.74,2.54e+02,2,,8.00e+02,2.33e+00,1,1.54e+01
"1/0367108264.61883",2014-12-19T22:31:08.968,13919,389.00,79.89,79.76,"02:06:21",111.30,-0.270,1.070,104.28,2.72e+02,2,,9.17e+02,2.33e+00,1,1.54e+01
"1/0367108272.31933",2014-12-19T22:31:16.511,13919,389.00,79.43,79.30,"05:00:39",110.54,-0.260,1.080,103.81,2.52e+02,2,,7.87e+02,2.13e+00,1,1.67e+01
"1/0367108280.01983",2014-12-19T22:31:24.054,13919,390.00,78.97,78.83,"07:41:12",109.84,-0.250,1.080,103.35,2.69e+02,2,,8.97e+02,2.33e+00,1,1.53e+01
"1/0367108287.37569",2014-12-19T22:31:31.597,13919,390.00,78.51,78.37,"10:08:00",109.20,-0.240,1.080,102.89,2.99e+02,2,,1.11e+03,2.30e+00,1,1.55e+01